Oxford, CT

9:45 AM EDT on August 16, 2017 (GMT -0400)
Waterbury-Oxford

Weather History for KOXC - February, 2014

Change the Weather History Date:

Sunday, February 16, 2014

  Actual Average Record
Temperature  
Mean Temperature 22 °F -  
Max Temperature 28 °F 35 °F 55 °F (2016)
Min Temperature 17 °F 20 °F -5 °F (2015)
Degree Days  
Heating Degree Days 42    
Moisture  
Dew Point 8 °F    
Average Humidity 54    
Maximum Humidity 68    
Minimum Humidity 43    
Precipitation  
Precipitation 0.00 in - - ()
Sea Level Pressure  
Sea Level Pressure 29.83 in    
Wind  
Wind Speed 13 mph (NW)    
Max Wind Speed 20 mph    
Max Gust Speed 32 mph    
Visibility 9 miles    
Events Snow    
Averages and records for this station are not official NWS values.
T = Trace of Precipitation, MM = Missing Value Source: NWS Daily Summary

Daily Weather History Graph

Daily Weather History Graph

Search for Another Location

Airport or City:

Trip Planner

Search our weather history database for the weather conditions in past years. The results will help you decide how hot, cold, wet, or windy it might be!

Date:

Astronomy

Feb. 16, 2014 Rise Set
Actual Time 6:46 AM EST 5:27 PM EST
Civil Twilight 6:17 AM EST 5:55 PM EST
Nautical Twilight 5:45 AM EST 6:28 PM EST
Astronomical Twilight 5:13 AM EST 7:00 PM EST
Moon 7:23 PM EST 7:13 AM EST
Length of Visible Light 11h 37m
Length of Day
10h 41m
Full, 97% of the Moon is Illuminated
Feb 16
Full
Feb 22
Last Quarter
Mar 1
New
Mar 8
First Quarter
Mar 16
Full

Hourly Weather History & Observations

Time (EST) Temp. Windchill Dew Point Humidity Pressure Visibility Wind Dir Wind Speed Gust Speed Precip Events Conditions
12:15 AM 24.8 °F 12.9 °F 10.4 °F 54% 29.64 in 10.0 mi NNW 13.8 mph 29.9 mph N/A   Scattered Clouds
12:35 AM 24.8 °F 12.4 °F 10.4 °F 54% 29.66 in 10.0 mi NNW 15.0 mph 26.5 mph N/A   Mostly Cloudy
12:55 AM 24.8 °F 10.7 °F 10.4 °F 54% 29.66 in 9.0 mi NNW 19.6 mph 27.6 mph N/A   Mostly Cloudy
1:15 AM 23.0 °F 8.3 °F 10.4 °F 59% 29.66 in 9.0 mi NNW 19.6 mph 28.8 mph N/A   Mostly Cloudy
1:35 AM 23.0 °F 8.7 °F 10.4 °F 59% 29.67 in 7.0 mi NNW 18.4 mph 26.5 mph N/A   Mostly Cloudy
1:55 AM 23.0 °F 8.3 °F 10.4 °F 59% 29.68 in 9.0 mi NNW 19.6 mph 32.2 mph N/A   Scattered Clouds
2:15 AM 23.0 °F 11.1 °F 10.4 °F 59% 29.68 in 10.0 mi NNW 12.7 mph 25.3 mph N/A   Mostly Cloudy
2:35 AM 23.0 °F 8.3 °F 10.4 °F 59% 29.69 in 8.0 mi NW 19.6 mph 29.9 mph N/A   Overcast
2:55 AM 23.0 °F 8.7 °F 8.6 °F 54% 29.70 in 10.0 mi NW 18.4 mph 32.2 mph N/A   Mostly Cloudy
3:15 AM 23.0 °F 11.1 °F 8.6 °F 54% 29.70 in 10.0 mi NNW 12.7 mph 24.2 mph N/A   Scattered Clouds
3:35 AM 21.2 °F 9.5 °F 8.6 °F 58% 29.70 in 10.0 mi NW 11.5 mph 20.7 mph N/A   Clear
3:55 AM 21.2 °F 7.8 °F 6.8 °F 54% 29.71 in 10.0 mi WNW 15.0 mph 24.2 mph N/A   Clear
4:15 AM 21.2 °F 13.6 °F 6.8 °F 54% 29.73 in 10.0 mi NW 5.8 mph 16.1 mph N/A   Clear
4:35 AM 21.2 °F 13.6 °F 6.8 °F 54% 29.74 in 10.0 mi NW 5.8 mph - N/A   Clear
4:55 AM 21.2 °F 11.7 °F 6.8 °F 54% 29.75 in 10.0 mi NNW 8.1 mph - N/A   Clear
5:15 AM 21.2 °F 10.1 °F 5.0 °F 50% 29.76 in 10.0 mi NNW 10.4 mph 17.3 mph N/A   Clear
5:35 AM 21.2 °F 8.3 °F 5.0 °F 50% 29.78 in 10.0 mi NNW 13.8 mph 23.0 mph N/A   Clear
5:45 AM 19.4 °F 5.5 °F 3.2 °F 49% 29.78 in 10.0 mi North 15.0 mph 27.6 mph N/A   Clear
6:48 AM 19.4 °F 10.4 °F 3.2 °F 49% 29.81 in 10.0 mi NNW 6.9 mph 17.3 mph N/A   Clear
7:48 AM 17.6 °F 6.4 °F 3.2 °F 53% 29.84 in 10.0 mi WNW 9.2 mph - N/A   Clear
8:48 AM 19.4 °F 9.5 °F 3.2 °F 49% 29.85 in 10.0 mi NW 8.1 mph 17.3 mph N/A   Clear
9:45 AM 21.2 °F 9.5 °F 3.2 °F 46% 29.85 in 10.0 mi NW 11.5 mph 17.3 mph N/A   Clear
10:45 AM 23.0 °F 13.1 °F 6.8 °F 50% 29.87 in 10.0 mi NW 9.2 mph 19.6 mph N/A   Clear
11:55 AM 26.6 °F 18.2 °F 6.8 °F 43% 29.87 in 10.0 mi NW 8.1 mph 17.3 mph N/A   Partly Cloudy
12:55 PM 26.6 °F 17.5 °F 6.8 °F 43% 29.86 in 10.0 mi WNW 9.2 mph - N/A   Partly Cloudy
1:45 PM 28.4 °F 19.7 °F 8.6 °F 43% 29.86 in 10.0 mi WNW 9.2 mph - N/A   Mostly Cloudy
2:45 PM - - - N/A% 29.86 in 10.0 mi NW 10.4 mph - N/A   Mostly Cloudy
3:45 PM 26.6 °F 19.1 °F 6.8 °F 43% 29.87 in 10.0 mi NW 6.9 mph - N/A   Mostly Cloudy
4:45 PM 26.6 °F 19.1 °F 6.8 °F 43% 29.88 in 10.0 mi NNW 6.9 mph - N/A   Overcast
5:30 PM 24.8 °F 16.9 °F 8.6 °F 50% 29.89 in 7.0 mi NNW 6.9 mph - N/A   Overcast
5:45 PM 24.8 °F 16.9 °F 10.4 °F 54% 29.90 in 3.0 mi NW 6.9 mph - N/A Snow Light Snow
6:45 PM 26.6 °F 18.2 °F 12.2 °F 55% 29.93 in 5.0 mi NW 8.1 mph - N/A Snow Light Snow
7:45 PM 21.2 °F 11.7 °F 12.2 °F 68% 29.95 in 5.0 mi NW 8.1 mph - N/A Snow Light Snow
9:15 PM 21.2 °F 11.7 °F 10.4 °F 63% 29.97 in 10.0 mi NW 8.1 mph 18.4 mph N/A   Overcast
9:35 PM 21.2 °F 10.9 °F 10.4 °F 63% 29.97 in 10.0 mi NW 9.2 mph 17.3 mph N/A   Overcast
9:55 PM 21.2 °F 9.5 °F 8.6 °F 58% 29.98 in 10.0 mi NNW 11.5 mph 16.1 mph N/A   Overcast
10:15 PM 19.4 °F 7.9 °F 8.6 °F 63% 29.99 in 10.0 mi NW 10.4 mph 16.1 mph N/A   Mostly Cloudy
10:35 PM 19.4 °F 6.6 °F 6.8 °F 58% 29.99 in 10.0 mi NNW 12.7 mph 20.7 mph N/A   Overcast
10:55 PM 19.4 °F 6.6 °F 6.8 °F 58% 29.99 in 10.0 mi NNW 12.7 mph 20.7 mph N/A   Overcast
11:15 PM 17.6 °F 5.7 °F 5.0 °F 58% 30.00 in 10.0 mi NW 10.4 mph 16.1 mph N/A   Overcast
11:35 PM 17.6 °F 3.7 °F 3.2 °F 53% 30.01 in 10.0 mi NW 13.8 mph 21.9 mph N/A   Scattered Clouds
11:55 PM 17.6 °F 4.3 °F 3.2 °F 53% 30.02 in 10.0 mi NW 12.7 mph 24.2 mph N/A   Clear